ZSLRI EDHI-EDDH

Flight info

Callsign ZSLRI
Flight time 0h 11m
Altitude 1500
Route EDHI/23 DCT
Aircraft C206/L-SDF/C

Departure

Time 2026-04-22 13:59
Airport Hamburg-Finkenwerder Airport (EDHI)

Arrival

Time 2026-04-22 14:10
Airport Hamburg Helmut Schmidt Airport (EDDH)
Time Latitude Longitude Altitude Speed Heading
2026-04-22 13:58 53.50900 9.85241 1758 ft 108 kts 54°
2026-04-22 13:59 53.51332 9.86214 1732 ft 106 kts 51°
2026-04-22 13:59 53.51832 9.87237 1778 ft 117 kts 47°
2026-04-22 13:59 53.52412 9.88248 1791 ft 122 kts 43°
2026-04-22 13:59 53.53067 9.89182 1775 ft 124 kts 38°
2026-04-22 14:00 53.53619 9.90132 1813 ft 109 kts 49°
2026-04-22 14:00 53.54131 9.91176 1779 ft 118 kts 50°
2026-04-22 14:00 53.54657 9.92240 1709 ft 116 kts 50°
2026-04-22 14:00 53.54996 9.92911 1748 ft 112 kts 47°
2026-04-22 14:01 53.55488 9.93859 1831 ft 102 kts 49°
2026-04-22 14:01 53.55951 9.94737 1831 ft 96 kts 46°
2026-04-22 14:01 53.56411 9.95547 1744 ft 96 kts 45°
2026-04-22 14:01 53.56938 9.96282 1732 ft 101 kts 27°
2026-04-22 14:02 53.57588 9.96743 1689 ft 105 kts 19°
2026-04-22 14:02 53.58327 9.97157 1691 ft 117 kts 11°
2026-04-22 14:02 53.59129 9.97443 1572 ft 120 kts 10°
2026-04-22 14:02 53.59922 9.97869 1343 ft 120 kts 41°
2026-04-22 14:03 53.60455 9.98940 1259 ft 121 kts 57°
2026-04-22 14:03 53.60899 10.00092 1159 ft 107 kts 58°
2026-04-22 14:03 53.61322 10.01205 1207 ft 113 kts 58°
2026-04-22 14:03 53.61714 10.02292 1196 ft 99 kts 58°
2026-04-22 14:04 53.62024 10.03174 1125 ft 94 kts 60°
2026-04-22 14:04 53.62461 10.03945 1121 ft 90 kts 18°
2026-04-22 14:04 53.63084 10.03750 989 ft 94 kts 332°
2026-04-22 14:04 53.63662 10.03137 907 ft 102 kts 324°
2026-04-22 14:05 53.64073 10.02251 797 ft 94 kts 279°
2026-04-22 14:05 53.64001 10.01139 526 ft 93 kts 255°
2026-04-22 14:05 53.62990 10.00016 577 ft 112 kts 179°
2026-04-22 14:06 53.62173 10.00042 894 ft 121 kts 180°
2026-04-22 14:06 53.61492 10.00613 1262 ft 116 kts 96°
2026-04-22 14:06 53.61841 10.01769 1408 ft 120 kts 38°
2026-04-22 14:06 53.62649 10.02010 1395 ft 121 kts 343°
2026-04-22 14:07 53.63361 10.01414 844 ft 117 kts 329°
2026-04-22 14:07 53.63733 10.00430 409 ft 108 kts 261°
2026-04-22 14:07 53.63325 9.99414 85 ft 90 kts 232°
2026-04-22 14:07 53.63015 9.98774 42 ft 64 kts 233°
2026-04-22 14:08 53.62658 9.98070 209 ft 84 kts 229°
2026-04-22 14:08 53.62232 9.97369 454 ft 88 kts 200°
2026-04-22 14:08 53.61649 9.97603 684 ft 106 kts 142°
2026-04-22 14:08 53.61282 9.98672 845 ft 122 kts 70°
2026-04-22 14:09 53.61789 9.99879 1031 ft 126 kts 52°
2026-04-22 14:09 53.62355 10.01020 1083 ft 125 kts 47°
2026-04-22 14:09 53.62992 10.01837 1116 ft 107 kts 13°
2026-04-22 14:09 53.63665 10.01599 1084 ft 96 kts 324°
2026-04-22 14:10 53.63840 10.00547 492 ft 99 kts 249°
2026-04-22 14:10 53.63457 9.99674 67 ft 79 kts 231°
2026-04-22 14:10 53.63182 9.99112 45 ft 49 kts 232°
2026-04-22 14:10 53.63035 9.98817 42 ft 27 kts 229°
2026-04-22 14:11 53.62923 9.98602 42 ft 23 kts 225°
2026-04-22 14:11 53.62826 9.98499 43 ft 14 kts 203°
2026-04-22 14:11 53.62754 9.98473 42 ft 0 kts 195°
2026-04-22 14:12 53.62713 9.98481 41 ft 16 kts 151°
2026-04-22 14:12 53.62722 9.98619 41 ft 9 kts 73°
2026-04-22 14:12 53.62662 9.98697 41 ft 11 kts 122°
2026-04-22 14:12 53.62673 9.98754 41 ft 0 kts 57°